This is the latest recevied weather packets stored in our database for station/object IR4UCA-3. If no packets are shown the sender has not sent any weather packets the latest 1 day(s).
| Time | Temp. | Humidity | Pressure | Rain* | Wind** | Luminosity | Snow |
|---|---|---|---|---|---|---|---|
| 1778005134 | 18.89° C | 84% | 1011.4 hPa | 0 mm | 0.89 m/s, 6° | - | - |
| 1778005012 | 18.89° C | 83% | 1011.4 hPa | 0 mm | 1.34 m/s, 4° | - | - |
| 1778004889 | 18.89° C | 83% | 1011.3 hPa | 0 mm | 1.34 m/s, 0° | - | - |
| 1778004768 | 18.89° C | 83% | 1011.3 hPa | 0 mm | 1.79 m/s, 1° | - | - |
| 1778004648 | 18.89° C | 84% | 1011.3 hPa | 0 mm | 1.79 m/s, 0° | - | - |
| 1778004527 | 18.89° C | 84% | 1011.3 hPa | 0 mm | 1.34 m/s, 0° | - | - |
| 1778004402 | 18.89° C | 83% | 1011.3 hPa | 0 mm | 2.24 m/s, 358° | - | - |
| 1778004281 | 18.89° C | 84% | 1011.4 hPa | 0 mm | 1.79 m/s, 0° | - | - |
| 1778004164 | 18.89° C | 83% | 1011.3 hPa | 0 mm | 2.24 m/s, 354° | - | - |
| 1778004051 | 18.89° C | 83% | 1011.3 hPa | 0 mm | 2.24 m/s, 0° | - | - |
| 1778003919 | 18.89° C | 83% | 1011.4 hPa | 0 mm | 2.24 m/s, 6° | - | - |
| 1778003798 | 18.89° C | 83% | 1011.3 hPa | 0 mm | 2.24 m/s, 0° | - | - |
| 1778003674 | 18.89° C | 83% | 1011.4 hPa | 0 mm | 2.24 m/s, 4° | - | - |
| 1778003555 | 18.89° C | 83% | 1011.4 hPa | 0 mm | 2.24 m/s, 358° | - | - |
| 1778003433 | 18.89° C | 82% | 1011.3 hPa | 0 mm | 0.89 m/s, 0° | - | - |
| 1778003312 | 19.44° C | 82% | 1011.2 hPa | 0 mm | 1.79 m/s, 6° | - | - |
| 1778003193 | 19.44° C | 82% | 1011.3 hPa | 0 mm | 2.24 m/s, 6° | - | - |
| 1778003074 | 19.44° C | 82% | 1011.3 hPa | 0 mm | 0.89 m/s, 354° | - | - |
| 1778002954 | 19.44° C | 82% | 1011.2 hPa | 0 mm | 1.34 m/s, 354° | - | - |
| 1778002832 | 19.44° C | 82% | 1011.2 hPa | 0 mm | 2.24 m/s, 354° | - | - |
| 1778002713 | 19.44° C | 82% | 1011.2 hPa | 0 mm | 1.34 m/s, 0° | - | - |
| 1778002590 | 19.44° C | 82% | 1011.1 hPa | 0 mm | 0.89 m/s, 0° | - | - |
| 1778002471 | 19.44° C | 81% | 1011.2 hPa | 0 mm | 2.24 m/s, 0° | - | - |
| 1778002350 | 19.44° C | 81% | 1011.2 hPa | 0 mm | 1.79 m/s, 0° | - | - |
| 1778002229 | 19.44° C | 82% | 1011.1 hPa | 0 mm | 0.89 m/s, 345° | - | - |
* Rain latest hour (hover to see other rain measurements)
** Current wind speed in m/s (hover to see current wind gust speed)